Time,TemperatureF,DewpointF,PressureIn,WindDirection,WindDirectionDegrees,WindSpeedMPH,WindSpeedGustMPH,Humidity,HourlyPrecipIn,Conditions,Clouds,dailyrainin,SoftwareType,DateUTC
2013-06-26 00:04:00,58.9,52.0,24.96,SSW,212,4.0,-999.0,78,-99.99,,,-99.99,dwt +perl,2013-06-26 07:04:00,
2013-06-26 00:09:00,58.9,52.0,24.96,SW,227,7.0,-999.0,78,-99.99,,,-99.99,dwt +perl,2013-06-26 07:09:00,
2013-06-26 00:14:00,58.8,52.0,24.96,SW,235,1.0,-999.0,78,-99.99,,,-99.99,dwt +perl,2013-06-26 07:14:00,
2013-06-26 00:19:00,58.7,51.8,24.96,NW,304,2.0,-999.0,78,-99.99,,,-99.99,dwt +perl,2013-06-26 07:19:00,
2013-06-26 00:24:00,58.6,52.1,24.96,SSW,206,1.0,-999.0,79,-99.99,,,-99.99,dwt +perl,2013-06-26 07:24:00,
2013-06-26 00:29:00,58.4,51.9,24.96,SW,222,5.0,-999.0,79,-99.99,,,-99.99,dwt +perl,2013-06-26 07:29:00,
2013-06-26 00:34:00,58.3,52.2,24.96,SW,220,6.0,-999.0,80,-99.99,,,-99.99,dwt +perl,2013-06-26 07:34:00,
2013-06-26 00:39:00,58.2,52.0,24.96,SW,214,3.0,-999.0,80,-99.99,,,-99.99,dwt +perl,2013-06-26 07:39:00,
2013-06-26 00:44:00,58.0,51.9,24.96,SW,216,5.0,-999.0,80,-99.99,,,-99.99,dwt +perl,2013-06-26 07:44:00,
2013-06-26 00:49:00,58.0,52.2,24.96,SW,216,9.0,-999.0,81,-99.99,,,-99.99,dwt +perl,2013-06-26 07:49:00,
2013-06-26 00:54:00,57.9,52.1,24.96,WSW,239,5.0,-999.0,81,-99.99,,,-99.99,dwt +perl,2013-06-26 07:54:00,
2013-06-26 00:59:00,57.9,52.1,24.96,SW,226,7.0,-999.0,81,-99.99,,,-99.99,dwt +perl,2013-06-26 07:59:00,
2013-06-26 01:04:00,58.1,52.3,24.96,SW,228,6.0,-999.0,81,-99.99,,,-99.99,dwt +perl,2013-06-26 08:04:00,
2013-06-26 01:09:00,58.0,52.2,24.96,SSW,198,6.0,-999.0,81,-99.99,,,-99.99,dwt +perl,2013-06-26 08:09:00,
2013-06-26 01:14:00,58.0,52.5,24.96,SW,226,7.0,-999.0,82,-99.99,,,-99.99,dwt +perl,2013-06-26 08:14:00,
2013-06-26 01:19:00,57.9,52.4,24.96,SSW,210,9.0,-999.0,82,-99.99,,,-99.99,dwt +perl,2013-06-26 08:19:00,
2013-06-26 01:24:00,57.8,52.7,24.96,SSW,202,5.0,-999.0,83,-99.99,,,-99.99,dwt +perl,2013-06-26 08:24:00,
2013-06-26 01:29:00,57.8,52.7,24.96,SSW,213,9.0,-999.0,83,-99.99,,,-99.99,dwt +perl,2013-06-26 08:29:00,
2013-06-26 01:34:00,57.8,52.7,24.96,SSW,208,6.0,-999.0,83,-99.99,,,-99.99,dwt +perl,2013-06-26 08:34:00,
2013-06-26 01:39:00,57.8,52.7,24.96,SW,214,6.0,-999.0,83,-99.99,,,-99.99,dwt +perl,2013-06-26 08:39:00,
2013-06-26 01:44:00,58.0,52.9,24.96,SSW,204,5.0,-999.0,83,-99.99,,,-99.99,dwt +perl,2013-06-26 08:44:00,
2013-06-26 01:49:00,57.8,52.3,24.96,SSW,204,5.0,-999.0,82,-99.99,,,-99.99,dwt +perl,2013-06-26 08:49:00,
2013-06-26 01:54:00,57.9,52.8,24.96,SW,229,9.0,-999.0,83,-99.99,,,-99.99,dwt +perl,2013-06-26 08:54:00,
2013-06-26 01:59:00,58.1,52.6,24.96,SW,214,6.0,-999.0,82,-99.99,,,-99.99,dwt +perl,2013-06-26 08:59:00,
2013-06-26 02:04:00,58.2,52.4,24.96,SSW,203,7.0,-999.0,81,-99.99,,,-99.99,dwt +perl,2013-06-26 09:04:00,
2013-06-26 02:09:00,58.2,52.4,24.96,SW,220,5.0,-999.0,81,-99.99,,,-99.99,dwt +perl,2013-06-26 09:09:00,
2013-06-26 02:14:00,58.2,52.4,24.96,SW,215,11.0,-999.0,81,-99.99,,,-99.99,dwt +perl,2013-06-26 09:14:00,
2013-06-26 02:19:00,58.3,52.5,24.96,WSW,250,5.0,-999.0,81,-99.99,,,-99.99,dwt +perl,2013-06-26 09:19:00,
2013-06-26 02:24:00,58.1,52.6,24.96,SSW,212,7.0,-999.0,82,-99.99,,,-99.99,dwt +perl,2013-06-26 09:24:00,
2013-06-26 02:29:00,58.1,52.6,24.96,SSW,205,8.0,-999.0,82,-99.99,,,-99.99,dwt +perl,2013-06-26 09:29:00,
2013-06-26 02:34:00,58.1,52.6,24.95,SW,231,4.0,-999.0,82,-99.99,,,-99.99,dwt +perl,2013-06-26 09:34:00,
2013-06-26 02:39:00,57.9,52.8,24.96,WSW,239,7.0,-999.0,83,-99.99,,,-99.99,dwt +perl,2013-06-26 09:39:00,
2013-06-26 02:44:00,57.8,52.7,24.95,SW,222,10.0,-999.0,83,-99.99,,,-99.99,dwt +perl,2013-06-26 09:44:00,
2013-06-26 02:49:00,57.9,52.8,24.95,WSW,237,10.0,-999.0,83,-99.99,,,-99.99,dwt +perl,2013-06-26 09:49:00,
2013-06-26 02:54:00,58.0,52.9,24.95,WSW,245,9.0,-999.0,83,-99.99,,,-99.99,dwt +perl,2013-06-26 09:54:00,
2013-06-26 02:59:00,58.0,52.5,24.95,SW,235,9.0,-999.0,82,-99.99,,,-99.99,dwt +perl,2013-06-26 09:59:00,
2013-06-26 03:04:00,57.8,52.3,24.95,SW,230,13.0,-999.0,82,-99.99,,,-99.99,dwt +perl,2013-06-26 10:04:00,
2013-06-26 03:09:00,58.0,52.5,24.95,SW,228,12.0,-999.0,82,-99.99,,,-99.99,dwt +perl,2013-06-26 10:09:00,
2013-06-26 03:14:00,58.0,52.5,24.95,SW,219,8.0,-999.0,82,-99.99,,,-99.99,dwt +perl,2013-06-26 10:14:00,
2013-06-26 03:19:00,58.0,52.5,24.95,WSW,239,8.0,-999.0,82,-99.99,,,-99.99,dwt +perl,2013-06-26 10:19:00,
2013-06-26 03:24:00,58.2,52.7,24.95,WSW,243,7.0,-999.0,82,-99.99,,,-99.99,dwt +perl,2013-06-26 10:24:00,
2013-06-26 03:29:00,57.9,52.4,24.95,SSW,202,7.0,-999.0,82,-99.99,,,-99.99,dwt +perl,2013-06-26 10:29:00,
2013-06-26 03:34:00,58.1,52.3,24.95,SSW,206,9.0,-999.0,81,-99.99,,,-99.99,dwt +perl,2013-06-26 10:34:00,
2013-06-26 03:39:00,58.7,52.2,24.95,SW,231,10.0,-999.0,79,-99.99,,,-99.99,dwt +perl,2013-06-26 10:39:00,
2013-06-26 03:44:00,59.1,52.2,24.95,WSW,239,6.0,-999.0,78,-99.99,,,-99.99,dwt +perl,2013-06-26 10:44:00,
2013-06-26 03:49:00,58.9,52.0,24.95,SW,225,8.0,-999.0,78,-99.99,,,-99.99,dwt +perl,2013-06-26 10:49:00,
2013-06-26 03:54:00,58.9,51.7,24.95,SSW,213,9.0,-999.0,77,-99.99,,,-99.99,dwt +perl,2013-06-26 10:54:00,
2013-06-26 03:59:00,59.2,51.6,24.95,WSW,240,8.0,-999.0,76,-99.99,,,-99.99,dwt +perl,2013-06-26 10:59:00,
2013-06-26 04:04:00,59.1,51.5,24.95,SW,225,7.0,-999.0,76,-99.99,,,-99.99,dwt +perl,2013-06-26 11:04:00,
2013-06-26 04:14:00,59.5,51.2,24.96,WSW,237,14.0,-999.0,74,-99.99,,,-99.99,dwt +perl,2013-06-26 11:14:00,
2013-06-26 04:19:00,59.7,51.4,24.96,WSW,241,9.0,-999.0,74,-99.99,,,-99.99,dwt +perl,2013-06-26 11:19:00,
2013-06-26 04:24:00,59.7,51.4,24.96,SW,228,6.0,-999.0,74,-99.99,,,-99.99,dwt +perl,2013-06-26 11:24:00,
2013-06-26 04:29:00,59.3,51.4,24.96,SW,221,9.0,-999.0,75,-99.99,,,-99.99,dwt +perl,2013-06-26 11:29:00,
2013-06-26 04:34:00,59.3,51.4,24.96,SW,215,12.0,-999.0,75,-99.99,,,-99.99,dwt +perl,2013-06-26 11:34:00,
2013-06-26 04:39:00,58.8,51.6,24.96,WSW,244,9.0,-999.0,77,-99.99,,,-99.99,dwt +perl,2013-06-26 11:39:00,
2013-06-26 04:44:00,58.7,51.5,24.96,SW,236,9.0,-999.0,77,-99.99,,,-99.99,dwt +perl,2013-06-26 11:44:00,
2013-06-26 04:49:00,58.4,51.6,24.96,SW,236,12.0,-999.0,78,-99.99,,,-99.99,dwt +perl,2013-06-26 11:49:00,
2013-06-26 04:54:00,58.4,51.9,24.96,WSW,242,11.0,-999.0,79,-99.99,,,-99.99,dwt +perl,2013-06-26 11:54:00,
2013-06-26 04:59:00,58.5,52.0,24.96,WSW,237,12.0,-999.0,79,-99.99,,,-99.99,dwt +perl,2013-06-26 11:59:00,
2013-06-26 05:04:00,58.5,52.0,24.96,WSW,245,11.0,-999.0,79,-99.99,,,-99.99,dwt +perl,2013-06-26 12:04:00,
2013-06-26 05:09:00,58.4,52.2,24.96,WSW,239,9.0,-999.0,80,-99.99,,,-99.99,dwt +perl,2013-06-26 12:09:00,
2013-06-26 05:14:00,58.4,52.2,24.96,WSW,246,10.0,-999.0,80,-99.99,,,-99.99,dwt +perl,2013-06-26 12:14:00,
2013-06-26 05:19:00,58.5,52.3,24.97,WSW,242,11.0,-999.0,80,-99.99,,,-99.99,dwt +perl,2013-06-26 12:19:00,
2013-06-26 05:24:00,58.9,52.4,24.97,WSW,239,10.0,-999.0,79,-99.99,,,-99.99,dwt +perl,2013-06-26 12:24:00,
2013-06-26 05:29:00,59.1,52.2,24.97,SW,235,12.0,-999.0,78,-99.99,,,-99.99,dwt +perl,2013-06-26 12:29:00,
2013-06-26 05:34:00,59.2,52.3,24.97,SW,234,11.0,-999.0,78,-99.99,,,-99.99,dwt +perl,2013-06-26 12:34:00,
2013-06-26 05:39:00,59.2,52.3,24.97,SW,227,12.0,-999.0,78,-99.99,,,-99.99,dwt +perl,2013-06-26 12:39:00,
2013-06-26 05:44:00,59.1,52.2,24.97,SW,235,15.0,-999.0,78,-99.99,,,-99.99,dwt +perl,2013-06-26 12:44:00,
2013-06-26 05:49:00,59.0,52.1,24.97,WSW,237,10.0,-999.0,78,-99.99,,,-99.99,dwt +perl,2013-06-26 12:49:00,
2013-06-26 05:54:00,59.0,51.1,24.97,WSW,239,12.0,-999.0,75,-99.99,,,-99.99,dwt +perl,2013-06-26 12:54:00,
2013-06-26 05:59:00,59.1,50.5,24.98,WSW,237,11.0,-999.0,73,-99.99,,,-99.99,dwt +perl,2013-06-26 12:59:00,
2013-06-26 06:04:00,59.1,50.5,24.97,WSW,239,11.0,-999.0,73,-99.99,,,-99.99,dwt +perl,2013-06-26 13:04:00,
2013-06-26 06:09:00,59.0,51.1,24.98,WSW,241,9.0,-999.0,75,-99.99,,,-99.99,dwt +perl,2013-06-26 13:09:00,
2013-06-26 06:14:00,58.9,51.3,24.98,WSW,237,11.0,-999.0,76,-99.99,,,-99.99,dwt +perl,2013-06-26 13:14:00,
2013-06-26 06:19:00,59.0,50.7,24.98,WSW,237,8.0,-999.0,74,-99.99,,,-99.99,dwt +perl,2013-06-26 13:19:00,
2013-06-26 06:24:00,59.0,51.4,24.98,WSW,239,10.0,-999.0,76,-99.99,,,-99.99,dwt +perl,2013-06-26 13:24:00,
2013-06-26 06:29:00,59.0,51.4,24.98,WSW,243,9.0,-999.0,76,-99.99,,,-99.99,dwt +perl,2013-06-26 13:29:00,
2013-06-26 06:34:00,59.2,50.9,24.98,SW,224,9.0,-999.0,74,-99.99,,,-99.99,dwt +perl,2013-06-26 13:34:00,
2013-06-26 06:39:00,59.1,51.2,24.98,WSW,237,7.0,-999.0,75,-99.99,,,-99.99,dwt +perl,2013-06-26 13:39:00,
2013-06-26 06:44:00,59.3,51.0,24.98,WSW,239,8.0,-999.0,74,-99.99,,,-99.99,dwt +perl,2013-06-26 13:44:00,
2013-06-26 06:49:00,59.5,51.2,24.98,WSW,239,7.0,-999.0,74,-99.99,,,-99.99,dwt +perl,2013-06-26 13:49:00,
2013-06-26 06:54:00,59.7,51.4,24.99,WSW,242,4.0,-999.0,74,-99.99,,,-99.99,dwt +perl,2013-06-26 13:54:00,
2013-06-26 06:59:00,59.8,51.8,24.99,WSW,243,4.0,-999.0,75,-99.99,,,-99.99,dwt +perl,2013-06-26 13:59:00,
2013-06-26 07:04:00,59.8,51.8,24.99,SW,235,5.0,-999.0,75,-99.99,,,-99.99,dwt +perl,2013-06-26 14:04:00,
2013-06-26 07:09:00,59.8,51.8,24.99,WSW,242,2.0,-999.0,75,-99.99,,,-99.99,dwt +perl,2013-06-26 14:09:00,
2013-06-26 07:14:00,59.8,51.8,24.99,WSW,242,2.0,-999.0,75,-99.99,,,-99.99,dwt +perl,2013-06-26 14:14:00,
2013-06-26 07:19:00,59.8,51.8,24.99,WSW,242,2.0,-999.0,75,-99.99,,,-99.99,dwt +perl,2013-06-26 14:19:00,
2013-06-26 07:24:00,59.9,52.0,24.99,WSW,242,2.0,-999.0,75,-99.99,,,-99.99,dwt +perl,2013-06-26 14:24:00,
2013-06-26 07:29:00,60.0,52.0,24.99,WSW,242,2.0,-999.0,75,-99.99,,,-99.99,dwt +perl,2013-06-26 14:29:00,
2013-06-26 07:34:00,60.1,52.1,24.99,WSW,242,1.0,-999.0,75,-99.99,,,-99.99,dwt +perl,2013-06-26 14:34:00,
2013-06-26 07:39:00,60.3,52.0,24.99,WSW,242,1.0,-999.0,74,-99.99,,,-99.99,dwt +perl,2013-06-26 14:39:00,
2013-06-26 07:44:00,60.4,52.1,25.00,WSW,242,2.0,-999.0,74,-99.99,,,-99.99,dwt +perl,2013-06-26 14:44:00,
2013-06-26 07:49:00,60.5,52.2,25.00,WSW,242,1.0,-999.0,74,-99.99,,,-99.99,dwt +perl,2013-06-26 14:49:00,
2013-06-26 07:54:00,60.7,52.4,25.00,WSW,242,2.0,-999.0,74,-99.99,,,-99.99,dwt +perl,2013-06-26 14:54:00,
2013-06-26 07:59:00,60.7,52.7,25.00,WSW,253,1.0,-999.0,75,-99.99,,,-99.99,dwt +perl,2013-06-26 14:59:00,
2013-06-26 08:04:00,60.8,52.8,25.00,WSW,253,0.0,-999.0,75,-99.99,,,-99.99,dwt +perl,2013-06-26 15:04:00,
2013-06-26 08:09:00,61.1,53.1,25.00,WSW,253,0.0,-999.0,75,-99.99,,,-99.99,dwt +perl,2013-06-26 15:09:00,
2013-06-26 08:14:00,61.8,53.4,25.00,WSW,253,0.0,-999.0,74,-99.99,,,-99.99,dwt +perl,2013-06-26 15:14:00,
2013-06-26 08:19:00,62.4,53.6,25.00,WSW,253,0.0,-999.0,73,-99.99,,,-99.99,dwt +perl,2013-06-26 15:19:00,
2013-06-26 08:24:00,62.8,53.2,25.00,WSW,253,0.0,-999.0,71,-99.99,,,-99.99,dwt +perl,2013-06-26 15:24:00,
2013-06-26 08:29:00,63.2,53.2,25.00,WSW,253,1.0,-999.0,70,-99.99,,,-99.99,dwt +perl,2013-06-26 15:29:00,
2013-06-26 08:34:00,63.2,52.8,25.00,WSW,253,0.0,-999.0,69,-99.99,,,-99.99,dwt +perl,2013-06-26 15:34:00,
2013-06-26 08:39:00,63.3,53.0,25.00,WSW,253,0.0,-999.0,69,-99.99,,,-99.99,dwt +perl,2013-06-26 15:39:00,
2013-06-26 08:44:00,63.8,52.6,25.00,WSW,253,0.0,-999.0,67,-99.99,,,-99.99,dwt +perl,2013-06-26 15:44:00,
2013-06-26 08:49:00,63.9,52.7,25.00,WSW,253,0.0,-999.0,67,-99.99,,,-99.99,dwt +perl,2013-06-26 15:49:00,
2013-06-26 08:54:00,64.1,53.7,25.00,WSW,253,0.0,-999.0,69,-99.99,,,-99.99,dwt +perl,2013-06-26 15:54:00,
2013-06-26 08:59:00,65.0,55.4,25.00,WSW,256,2.0,-999.0,71,-99.99,,,-99.99,dwt +perl,2013-06-26 15:59:00,
2013-06-26 09:04:00,65.4,53.7,25.00,WSW,258,2.0,-999.0,66,-99.99,,,-99.99,dwt +perl,2013-06-26 16:04:00,
2013-06-26 09:09:00,65.7,54.4,25.00,WSW,258,0.0,-999.0,67,-99.99,,,-99.99,dwt +perl,2013-06-26 16:09:00,
2013-06-26 09:14:00,65.8,55.7,25.00,WSW,258,0.0,-999.0,70,-99.99,,,-99.99,dwt +perl,2013-06-26 16:14:00,
2013-06-26 09:19:00,65.8,55.7,25.00,WSW,258,0.0,-999.0,70,-99.99,,,-99.99,dwt +perl,2013-06-26 16:19:00,
2013-06-26 09:24:00,65.7,55.6,25.00,WSW,258,0.0,-999.0,70,-99.99,,,-99.99,dwt +perl,2013-06-26 16:24:00,
2013-06-26 09:29:00,66.1,56.8,25.00,WSW,258,0.0,-999.0,72,-99.99,,,-99.99,dwt +perl,2013-06-26 16:29:00,
2013-06-26 09:34:00,66.5,57.2,25.00,NW,318,1.0,-999.0,72,-99.99,,,-99.99,dwt +perl,2013-06-26 16:34:00,
2013-06-26 09:39:00,66.7,57.4,25.00,NNE,21,1.0,-999.0,72,-99.99,,,-99.99,dwt +perl,2013-06-26 16:39:00,
2013-06-26 09:44:00,67.0,57.3,25.00,NNE,23,0.0,-999.0,71,-99.99,,,-99.99,dwt +perl,2013-06-26 16:44:00,
2013-06-26 09:49:00,66.8,57.1,25.00,NNE,31,4.0,-999.0,71,-99.99,,,-99.99,dwt +perl,2013-06-26 16:49:00,
2013-06-26 09:54:00,67.0,57.3,25.00,NE,35,3.0,-999.0,71,-99.99,,,-99.99,dwt +perl,2013-06-26 16:54:00,
2013-06-26 09:59:00,66.9,56.8,25.00,NE,52,2.0,-999.0,70,-99.99,,,-99.99,dwt +perl,2013-06-26 16:59:00,
2013-06-26 10:04:00,67.0,56.9,25.00,NE,52,1.0,-999.0,70,-99.99,,,-99.99,dwt +perl,2013-06-26 17:04:00,
2013-06-26 10:09:00,67.3,57.6,25.00,NE,52,0.0,-999.0,71,-99.99,,,-99.99,dwt +perl,2013-06-26 17:09:00,
2013-06-26 10:14:00,67.9,57.7,25.00,NE,56,2.0,-999.0,70,-99.99,,,-99.99,dwt +perl,2013-06-26 17:14:00,
2013-06-26 10:19:00,68.3,57.7,25.00,NE,56,0.0,-999.0,69,-99.99,,,-99.99,dwt +perl,2013-06-26 17:19:00,
2013-06-26 10:24:00,68.6,57.2,25.00,NE,56,0.0,-999.0,67,-99.99,,,-99.99,dwt +perl,2013-06-26 17:24:00,
2013-06-26 10:29:00,68.7,57.3,25.00,NE,56,1.0,-999.0,67,-99.99,,,-99.99,dwt +perl,2013-06-26 17:29:00,
2013-06-26 10:39:00,68.8,57.4,25.00,NE,56,0.0,-999.0,67,-99.99,,,-99.99,dwt +perl,2013-06-26 17:39:00,
2013-06-26 10:49:00,69.1,57.7,25.00,NE,45,1.0,-999.0,67,-99.99,,,-99.99,dwt +perl,2013-06-26 17:49:00,
2013-06-26 10:54:00,69.0,57.2,25.00,NE,45,1.0,-999.0,66,-99.99,,,-99.99,dwt +perl,2013-06-26 17:54:00,
2013-06-26 10:59:00,69.2,56.5,25.00,NE,45,2.0,-999.0,64,-99.99,,,-99.99,dwt +perl,2013-06-26 17:59:00,
2013-06-26 11:04:00,68.7,56.0,25.00,NE,46,0.0,-999.0,64,-99.99,,,-99.99,dwt +perl,2013-06-26 18:04:00,
2013-06-26 11:14:00,69.0,55.0,25.01,East,86,0.0,-999.0,61,-99.99,,,-99.99,dwt +perl,2013-06-26 18:14:00,
2013-06-26 11:19:00,68.7,54.2,25.01,East,87,3.0,-999.0,60,-99.99,,,-99.99,dwt +perl,2013-06-26 18:19:00,
2013-06-26 11:24:00,68.0,53.6,25.01,NW,321,0.0,-999.0,60,-99.99,,,-99.99,dwt +perl,2013-06-26 18:24:00,
2013-06-26 11:29:00,68.0,54.0,25.01,WNW,303,1.0,-999.0,61,-99.99,,,-99.99,dwt +perl,2013-06-26 18:29:00,
2013-06-26 11:39:00,68.1,54.6,25.01,SW,234,4.0,-999.0,62,-99.99,,,-99.99,dwt +perl,2013-06-26 18:39:00,
2013-06-26 11:44:00,68.1,53.7,25.01,SW,234,4.0,-999.0,60,-99.99,,,-99.99,dwt +perl,2013-06-26 18:44:00,
2013-06-26 11:49:00,68.2,53.8,25.01,SW,230,4.0,-999.0,60,-99.99,,,-99.99,dwt +perl,2013-06-26 18:49:00,
2013-06-26 11:54:00,68.1,53.2,25.01,SW,230,3.0,-999.0,59,-99.99,,,-99.99,dwt +perl,2013-06-26 18:54:00,
2013-06-26 11:59:00,68.5,54.5,25.02,SW,230,3.0,-999.0,61,-99.99,,,-99.99,dwt +perl,2013-06-26 18:59:00,
2013-06-26 12:04:00,69.5,53.1,25.01,SW,228,1.0,-999.0,56,-99.99,,,-99.99,dwt +perl,2013-06-26 19:04:00,
2013-06-26 12:09:00,70.3,55.7,25.01,SW,223,0.0,-999.0,60,-99.99,,,-99.99,dwt +perl,2013-06-26 19:09:00,
2013-06-26 12:14:00,71.1,55.6,25.01,SSW,209,0.0,-999.0,58,-99.99,,,-99.99,dwt +perl,2013-06-26 19:14:00,
2013-06-26 12:19:00,71.9,56.3,25.01,SSE,152,0.0,-999.0,58,-99.99,,,-99.99,dwt +perl,2013-06-26 19:19:00,
2013-06-26 12:24:00,73.3,56.6,25.01,SE,143,1.0,-999.0,56,-99.99,,,-99.99,dwt +perl,2013-06-26 19:24:00,
2013-06-26 12:29:00,73.6,56.4,25.01,SE,143,0.0,-999.0,55,-99.99,,,-99.99,dwt +perl,2013-06-26 19:29:00,
2013-06-26 12:34:00,73.7,56.0,25.01,SE,145,2.0,-999.0,54,-99.99,,,-99.99,dwt +perl,2013-06-26 19:34:00,
2013-06-26 12:39:00,73.8,57.1,25.01,SE,137,0.0,-999.0,56,-99.99,,,-99.99,dwt +perl,2013-06-26 19:39:00,
2013-06-26 12:49:00,74.0,56.3,25.01,ESE,114,2.0,-999.0,54,-99.99,,,-99.99,dwt +perl,2013-06-26 19:49:00,
2013-06-26 12:54:00,73.8,57.1,25.01,ESE,114,0.0,-999.0,56,-99.99,,,-99.99,dwt +perl,2013-06-26 19:54:00,
2013-06-26 12:59:00,74.0,56.8,25.01,ESE,114,1.0,-999.0,55,-99.99,,,-99.99,dwt +perl,2013-06-26 19:59:00,
2013-06-26 13:04:00,74.2,57.0,25.01,ESE,102,1.0,-999.0,55,-99.99,,,-99.99,dwt +perl,2013-06-26 20:04:00,
2013-06-26 13:09:00,74.5,57.8,25.00,ENE,61,1.0,-999.0,56,-99.99,,,-99.99,dwt +perl,2013-06-26 20:09:00,
2013-06-26 13:14:00,74.6,56.8,25.01,ENE,61,1.0,-999.0,54,-99.99,,,-99.99,dwt +perl,2013-06-26 20:14:00,
2013-06-26 13:24:00,74.5,56.7,25.00,ENE,61,0.0,-999.0,54,-99.99,,,-99.99,dwt +perl,2013-06-26 20:24:00,
2013-06-26 13:29:00,74.2,57.5,25.00,ENE,63,1.0,-999.0,56,-99.99,,,-99.99,dwt +perl,2013-06-26 20:29:00,
2013-06-26 13:34:00,74.4,57.2,25.00,East,90,2.0,-999.0,55,-99.99,,,-99.99,dwt +perl,2013-06-26 20:34:00,
2013-06-26 13:39:00,74.6,57.8,25.00,ESE,110,1.0,-999.0,56,-99.99,,,-99.99,dwt +perl,2013-06-26 20:39:00,
2013-06-26 13:44:00,74.3,57.6,25.00,ESE,112,3.0,-999.0,56,-99.99,,,-99.99,dwt +perl,2013-06-26 20:44:00,
2013-06-26 13:49:00,74.0,57.8,25.00,SE,125,5.0,-999.0,57,-99.99,,,-99.99,dwt +perl,2013-06-26 20:49:00,
2013-06-26 13:54:00,73.8,58.1,25.00,ESE,123,0.0,-999.0,58,-99.99,,,-99.99,dwt +perl,2013-06-26 20:54:00,
2013-06-26 13:59:00,72.8,57.6,25.00,NNE,29,2.0,-999.0,59,-99.99,,,-99.99,dwt +perl,2013-06-26 20:59:00,
2013-06-26 14:04:00,72.5,58.3,25.00,East,85,3.0,-999.0,61,-99.99,,,-99.99,dwt +perl,2013-06-26 21:04:00,
2013-06-26 14:09:00,72.5,57.8,25.00,SSE,160,2.0,-999.0,60,-99.99,,,-99.99,dwt +perl,2013-06-26 21:09:00,
2013-06-26 14:14:00,72.3,57.6,25.00,South,170,0.0,-999.0,60,-99.99,,,-99.99,dwt +perl,2013-06-26 21:14:00,
2013-06-26 14:19:00,72.7,58.0,25.00,SSE,168,0.0,-999.0,60,-99.99,,,-99.99,dwt +perl,2013-06-26 21:19:00,
2013-06-26 14:24:00,73.3,58.6,25.00,SSE,168,0.0,-999.0,60,-99.99,,,-99.99,dwt +perl,2013-06-26 21:24:00,
2013-06-26 14:29:00,74.0,58.7,25.00,South,180,0.0,-999.0,59,-99.99,,,-99.99,dwt +perl,2013-06-26 21:29:00,
2013-06-26 14:34:00,73.9,57.7,24.99,South,172,2.0,-999.0,57,-99.99,,,-99.99,dwt +perl,2013-06-26 21:34:00,
2013-06-26 14:39:00,74.0,57.8,24.99,South,172,2.0,-999.0,57,-99.99,,,-99.99,dwt +perl,2013-06-26 21:39:00,
2013-06-26 14:44:00,73.6,58.4,24.99,WSW,246,2.0,-999.0,59,-99.99,,,-99.99,dwt +perl,2013-06-26 21:44:00,
2013-06-26 14:49:00,73.1,57.4,24.99,West,275,0.0,-999.0,58,-99.99,,,-99.99,dwt +perl,2013-06-26 21:49:00,
2013-06-26 14:54:00,73.1,58.4,24.99,NW,312,5.0,-999.0,60,-99.99,,,-99.99,dwt +perl,2013-06-26 21:54:00,
2013-06-26 14:59:00,73.3,58.6,24.99,WNW,295,3.0,-999.0,60,-99.99,,,-99.99,dwt +perl,2013-06-26 21:59:00,
2013-06-26 15:04:00,73.0,58.7,24.99,WNW,303,2.0,-999.0,61,-99.99,,,-99.99,dwt +perl,2013-06-26 22:04:00,
2013-06-26 15:09:00,73.8,58.6,24.99,WNW,301,2.0,-999.0,59,-99.99,,,-99.99,dwt +perl,2013-06-26 22:09:00,
2013-06-26 15:14:00,74.2,58.9,24.99,West,268,0.0,-999.0,59,-99.99,,,-99.99,dwt +perl,2013-06-26 22:14:00,
2013-06-26 15:24:00,74.0,58.7,24.99,WSW,258,2.0,-999.0,59,-99.99,,,-99.99,dwt +perl,2013-06-26 22:24:00,
2013-06-26 15:29:00,72.5,58.3,24.99,SW,219,1.0,-999.0,61,-99.99,,,-99.99,dwt +perl,2013-06-26 22:29:00,
2013-06-26 15:34:00,72.5,58.3,24.99,WSW,255,1.0,-999.0,61,-99.99,,,-99.99,dwt +perl,2013-06-26 22:34:00,
2013-06-26 15:44:00,73.8,59.5,24.99,SSE,158,2.0,-999.0,61,-99.99,,,-99.99,dwt +perl,2013-06-26 22:44:00,
2013-06-26 15:49:00,74.0,58.7,24.99,South,171,0.0,-999.0,59,-99.99,,,-99.99,dwt +perl,2013-06-26 22:49:00,
2013-06-26 15:54:00,74.7,58.4,24.99,South,171,0.0,-999.0,57,-99.99,,,-99.99,dwt +perl,2013-06-26 22:54:00,
2013-06-26 15:59:00,75.1,58.3,24.98,South,171,0.0,-999.0,56,-99.99,,,-99.99,dwt +perl,2013-06-26 22:59:00,
2013-06-26 16:04:00,74.6,57.8,24.98,ESE,109,0.0,-999.0,56,-99.99,,,-99.99,dwt +perl,2013-06-26 23:04:00,
2013-06-26 16:09:00,74.2,58.5,24.98,SE,146,4.0,-999.0,58,-99.99,,,-99.99,dwt +perl,2013-06-26 23:09:00,
2013-06-26 16:14:00,73.9,58.7,24.98,SSW,207,2.0,-999.0,59,-99.99,,,-99.99,dwt +perl,2013-06-26 23:14:00,
2013-06-26 16:19:00,73.2,58.0,24.98,WSW,253,3.0,-999.0,59,-99.99,,,-99.99,dwt +perl,2013-06-26 23:19:00,
2013-06-26 16:24:00,73.0,58.3,24.98,WSW,247,0.0,-999.0,60,-99.99,,,-99.99,dwt +perl,2013-06-26 23:24:00,
2013-06-26 16:29:00,73.7,58.5,24.98,WSW,247,0.0,-999.0,59,-99.99,,,-99.99,dwt +perl,2013-06-26 23:29:00,
2013-06-26 16:34:00,74.5,58.7,24.98,WSW,247,1.0,-999.0,58,-99.99,,,-99.99,dwt +perl,2013-06-26 23:34:00,
2013-06-26 16:39:00,74.4,58.6,24.98,WSW,247,0.0,-999.0,58,-99.99,,,-99.99,dwt +perl,2013-06-26 23:39:00,
2013-06-26 16:44:00,73.1,57.9,24.98,West,280,3.0,-999.0,59,-99.99,,,-99.99,dwt +perl,2013-06-26 23:44:00,
2013-06-26 16:49:00,73.0,58.7,24.98,WSW,246,5.0,-999.0,61,-99.99,,,-99.99,dwt +perl,2013-06-26 23:49:00,
2013-06-26 16:54:00,71.8,57.2,24.98,SW,218,7.0,-999.0,60,-99.99,,,-99.99,dwt +perl,2013-06-26 23:54:00,
2013-06-26 16:59:00,70.8,58.0,24.98,West,270,0.0,-999.0,64,-99.99,,,-99.99,dwt +perl,2013-06-26 23:59:00,
2013-06-26 17:04:00,71.3,58.0,24.98,West,264,6.0,-999.0,63,-99.99,,,-99.99,dwt +perl,2013-06-27 00:04:00,
2013-06-26 17:09:00,71.5,57.8,24.97,WSW,253,3.0,-999.0,62,-99.99,,,-99.99,dwt +perl,2013-06-27 00:09:00,
2013-06-26 17:14:00,71.1,58.7,24.97,WSW,253,6.0,-999.0,65,-99.99,,,-99.99,dwt +perl,2013-06-27 00:14:00,
2013-06-26 17:19:00,71.0,58.2,24.97,WSW,237,3.0,-999.0,64,-99.99,,,-99.99,dwt +perl,2013-06-27 00:19:00,
2013-06-26 17:24:00,71.1,57.8,24.97,SW,235,4.0,-999.0,63,-99.99,,,-99.99,dwt +perl,2013-06-27 00:24:00,
2013-06-26 17:29:00,71.3,58.5,24.97,SW,228,3.0,-999.0,64,-99.99,,,-99.99,dwt +perl,2013-06-27 00:29:00,
2013-06-26 17:34:00,70.9,58.1,24.97,SW,235,3.0,-999.0,64,-99.99,,,-99.99,dwt +perl,2013-06-27 00:34:00,
2013-06-26 17:39:00,71.2,58.4,24.97,WSW,237,2.0,-999.0,64,-99.99,,,-99.99,dwt +perl,2013-06-27 00:39:00,
2013-06-26 17:44:00,71.0,57.8,24.97,WSW,241,4.0,-999.0,63,-99.99,,,-99.99,dwt +perl,2013-06-27 00:44:00,
2013-06-26 17:49:00,70.9,58.1,24.97,WSW,241,1.0,-999.0,64,-99.99,,,-99.99,dwt +perl,2013-06-27 00:49:00,
2013-06-26 17:54:00,70.4,58.1,24.97,WSW,251,5.0,-999.0,65,-99.99,,,-99.99,dwt +perl,2013-06-27 00:54:00,
2013-06-26 17:59:00,70.5,58.6,24.97,WSW,249,4.0,-999.0,66,-99.99,,,-99.99,dwt +perl,2013-06-27 00:59:00,
2013-06-26 18:04:00,70.3,58.0,24.97,WSW,243,6.0,-999.0,65,-99.99,,,-99.99,dwt +perl,2013-06-27 01:04:00,
2013-06-26 18:09:00,69.8,58.3,24.97,SW,236,4.0,-999.0,67,-99.99,,,-99.99,dwt +perl,2013-06-27 01:09:00,
2013-06-26 18:14:00,69.3,57.9,24.97,SW,231,5.0,-999.0,67,-99.99,,,-99.99,dwt +perl,2013-06-27 01:14:00,
2013-06-26 18:19:00,69.4,57.5,24.97,SW,228,6.0,-999.0,66,-99.99,,,-99.99,dwt +perl,2013-06-27 01:19:00,
2013-06-26 18:24:00,69.3,57.9,24.97,SW,228,2.0,-999.0,67,-99.99,,,-99.99,dwt +perl,2013-06-27 01:24:00,
2013-06-26 18:29:00,69.4,58.4,24.97,SW,228,3.0,-999.0,68,-99.99,,,-99.99,dwt +perl,2013-06-27 01:29:00,
2013-06-26 18:34:00,69.7,57.8,24.97,SW,228,2.0,-999.0,66,-99.99,,,-99.99,dwt +perl,2013-06-27 01:34:00,
2013-06-26 18:39:00,70.0,58.1,24.97,SW,228,2.0,-999.0,66,-99.99,,,-99.99,dwt +perl,2013-06-27 01:39:00,
2013-06-26 18:44:00,70.1,57.8,24.97,SW,228,1.0,-999.0,65,-99.99,,,-99.99,dwt +perl,2013-06-27 01:44:00,
2013-06-26 18:49:00,70.4,58.5,24.97,SW,228,2.0,-999.0,66,-99.99,,,-99.99,dwt +perl,2013-06-27 01:49:00,
2013-06-26 18:54:00,70.2,57.9,24.97,SW,228,1.0,-999.0,65,-99.99,,,-99.99,dwt +perl,2013-06-27 01:54:00,
2013-06-26 18:59:00,70.6,57.8,24.97,SW,228,0.0,-999.0,64,-99.99,,,-99.99,dwt +perl,2013-06-27 01:59:00,
2013-06-26 19:04:00,71.1,57.8,24.97,SW,228,0.0,-999.0,63,-99.99,,,-99.99,dwt +perl,2013-06-27 02:04:00,
2013-06-26 19:09:00,71.4,57.2,24.97,SW,228,0.0,-999.0,61,-99.99,,,-99.99,dwt +perl,2013-06-27 02:09:00,
2013-06-26 19:14:00,71.5,57.3,24.97,SW,228,0.0,-999.0,61,-99.99,,,-99.99,dwt +perl,2013-06-27 02:14:00,
2013-06-26 19:19:00,71.2,56.6,24.97,SW,228,0.0,-999.0,60,-99.99,,,-99.99,dwt +perl,2013-06-27 02:19:00,
2013-06-26 19:24:00,70.8,56.7,24.97,SW,228,1.0,-999.0,61,-99.99,,,-99.99,dwt +perl,2013-06-27 02:24:00,
2013-06-26 19:29:00,70.7,56.6,24.97,SW,226,2.0,-999.0,61,-99.99,,,-99.99,dwt +perl,2013-06-27 02:29:00,
2013-06-26 19:34:00,70.4,56.7,24.97,SW,226,2.0,-999.0,62,-99.99,,,-99.99,dwt +perl,2013-06-27 02:34:00,
2013-06-26 19:39:00,70.3,56.7,24.97,SW,226,1.0,-999.0,62,-99.99,,,-99.99,dwt +perl,2013-06-27 02:39:00,
2013-06-26 19:44:00,70.2,56.1,24.97,SSW,206,3.0,-999.0,61,-99.99,,,-99.99,dwt +perl,2013-06-27 02:44:00,
2013-06-26 19:49:00,69.7,55.6,24.97,South,184,4.0,-999.0,61,-99.99,,,-99.99,dwt +perl,2013-06-27 02:49:00,
2013-06-26 19:54:00,69.3,55.7,24.97,SSE,164,3.0,-999.0,62,-99.99,,,-99.99,dwt +perl,2013-06-27 02:54:00,
2013-06-26 19:59:00,68.9,55.3,24.97,SSE,150,3.0,-999.0,62,-99.99,,,-99.99,dwt +perl,2013-06-27 02:59:00,
2013-06-26 20:04:00,68.7,55.6,24.97,SSE,150,2.0,-999.0,63,-99.99,,,-99.99,dwt +perl,2013-06-27 03:04:00,
2013-06-26 20:09:00,68.4,55.7,24.97,SE,134,3.0,-999.0,64,-99.99,,,-99.99,dwt +perl,2013-06-27 03:09:00,
2013-06-26 20:14:00,68.1,55.9,24.97,SE,134,3.0,-999.0,65,-99.99,,,-99.99,dwt +perl,2013-06-27 03:14:00,
2013-06-26 20:19:00,67.9,55.7,24.97,SE,133,3.0,-999.0,65,-99.99,,,-99.99,dwt +perl,2013-06-27 03:19:00,
2013-06-26 20:24:00,67.6,55.8,24.97,SE,134,3.0,-999.0,66,-99.99,,,-99.99,dwt +perl,2013-06-27 03:24:00,
2013-06-26 20:29:00,67.3,56.0,24.97,SE,134,0.0,-999.0,67,-99.99,,,-99.99,dwt +perl,2013-06-27 03:29:00,
2013-06-26 20:34:00,67.0,56.1,24.97,SE,134,1.0,-999.0,68,-99.99,,,-99.99,dwt +perl,2013-06-27 03:34:00,
2013-06-26 20:39:00,66.7,56.2,24.97,SE,133,0.0,-999.0,69,-99.99,,,-99.99,dwt +perl,2013-06-27 03:39:00,
2013-06-26 20:44:00,66.4,55.9,24.97,SE,133,1.0,-999.0,69,-99.99,,,-99.99,dwt +perl,2013-06-27 03:44:00,
2013-06-26 20:49:00,66.4,56.3,24.97,SE,134,0.0,-999.0,70,-99.99,,,-99.99,dwt +perl,2013-06-27 03:49:00,
2013-06-26 20:54:00,66.5,56.0,24.98,SE,133,1.0,-999.0,69,-99.99,,,-99.99,dwt +perl,2013-06-27 03:54:00,
2013-06-26 20:59:00,66.4,55.9,24.98,SE,134,1.0,-999.0,69,-99.99,,,-99.99,dwt +perl,2013-06-27 03:59:00,
2013-06-26 21:04:00,66.3,55.8,24.98,SE,133,3.0,-999.0,69,-99.99,,,-99.99,dwt +perl,2013-06-27 04:04:00,
2013-06-26 21:09:00,66.5,56.4,24.98,SE,133,2.0,-999.0,70,-99.99,,,-99.99,dwt +perl,2013-06-27 04:09:00,
2013-06-26 21:14:00,66.7,55.8,24.98,SE,133,2.0,-999.0,68,-99.99,,,-99.99,dwt +perl,2013-06-27 04:14:00,
2013-06-26 21:19:00,66.7,55.4,24.98,SE,133,2.0,-999.0,67,-99.99,,,-99.99,dwt +perl,2013-06-27 04:19:00,
2013-06-26 21:24:00,66.7,56.2,24.98,SE,134,1.0,-999.0,69,-99.99,,,-99.99,dwt +perl,2013-06-27 04:24:00,
2013-06-26 21:29:00,66.6,55.7,24.98,SE,134,2.0,-999.0,68,-99.99,,,-99.99,dwt +perl,2013-06-27 04:29:00,
2013-06-26 21:34:00,66.7,55.4,24.98,SE,133,1.0,-999.0,67,-99.99,,,-99.99,dwt +perl,2013-06-27 04:34:00,
2013-06-26 21:39:00,66.7,55.4,24.98,SE,133,2.0,-999.0,67,-99.99,,,-99.99,dwt +perl,2013-06-27 04:39:00,
2013-06-26 21:44:00,67.0,55.7,24.98,SE,133,4.0,-999.0,67,-99.99,,,-99.99,dwt +perl,2013-06-27 04:44:00,
2013-06-26 21:49:00,67.1,55.8,24.99,SE,133,3.0,-999.0,67,-99.99,,,-99.99,dwt +perl,2013-06-27 04:49:00,
2013-06-26 21:54:00,67.2,55.4,24.99,SE,134,3.0,-999.0,66,-99.99,,,-99.99,dwt +perl,2013-06-27 04:54:00,
2013-06-26 21:59:00,67.1,55.3,24.99,SE,134,3.0,-999.0,66,-99.99,,,-99.99,dwt +perl,2013-06-27 04:59:00,
2013-06-26 22:04:00,67.0,55.7,24.99,SE,134,2.0,-999.0,67,-99.99,,,-99.99,dwt +perl,2013-06-27 05:04:00,
2013-06-26 22:09:00,67.1,55.8,24.99,SE,134,1.0,-999.0,67,-99.99,,,-99.99,dwt +perl,2013-06-27 05:09:00,
2013-06-26 22:14:00,66.9,55.6,24.99,SE,133,3.0,-999.0,67,-99.99,,,-99.99,dwt +perl,2013-06-27 05:14:00,
2013-06-26 22:19:00,66.9,55.6,24.99,SE,134,1.0,-999.0,67,-99.99,,,-99.99,dwt +perl,2013-06-27 05:19:00,
2013-06-26 22:24:00,66.8,55.1,24.99,SE,133,0.0,-999.0,66,-99.99,,,-99.99,dwt +perl,2013-06-27 05:24:00,
2013-06-26 22:29:00,66.8,55.5,24.99,SE,133,2.0,-999.0,67,-99.99,,,-99.99,dwt +perl,2013-06-27 05:29:00,
2013-06-26 22:34:00,66.8,55.1,24.99,SE,134,0.0,-999.0,66,-99.99,,,-99.99,dwt +perl,2013-06-27 05:34:00,
2013-06-26 22:39:00,66.8,55.1,24.99,SE,133,1.0,-999.0,66,-99.99,,,-99.99,dwt +perl,2013-06-27 05:39:00,
2013-06-26 22:44:00,66.8,54.6,24.99,SE,133,1.0,-999.0,65,-99.99,,,-99.99,dwt +perl,2013-06-27 05:44:00,
2013-06-26 22:49:00,66.8,55.1,24.99,SE,134,3.0,-999.0,66,-99.99,,,-99.99,dwt +perl,2013-06-27 05:49:00,
2013-06-26 22:54:00,66.6,55.3,24.99,SE,134,3.0,-999.0,67,-99.99,,,-99.99,dwt +perl,2013-06-27 05:54:00,
2013-06-26 22:59:00,66.2,55.7,24.99,SE,134,3.0,-999.0,69,-99.99,,,-99.99,dwt +perl,2013-06-27 05:59:00,
2013-06-26 23:04:00,65.8,55.7,24.99,SE,133,4.0,-999.0,70,-99.99,,,-99.99,dwt +perl,2013-06-27 06:04:00,
2013-06-26 23:09:00,65.4,55.3,24.99,SE,133,2.0,-999.0,70,-99.99,,,-99.99,dwt +perl,2013-06-27 06:09:00,
2013-06-26 23:14:00,65.2,55.5,24.99,SE,131,4.0,-999.0,71,-99.99,,,-99.99,dwt +perl,2013-06-27 06:14:00,
2013-06-26 23:19:00,64.9,55.3,24.99,SE,125,3.0,-999.0,71,-99.99,,,-99.99,dwt +perl,2013-06-27 06:19:00,
2013-06-26 23:24:00,64.7,55.1,24.99,ESE,118,4.0,-999.0,71,-99.99,,,-99.99,dwt +perl,2013-06-27 06:24:00,
2013-06-26 23:29:00,64.5,54.9,24.99,ESE,118,4.0,-999.0,71,-99.99,,,-99.99,dwt +perl,2013-06-27 06:29:00,
2013-06-26 23:34:00,64.4,54.8,24.99,ESE,118,3.0,-999.0,71,-99.99,,,-99.99,dwt +perl,2013-06-27 06:34:00,
2013-06-26 23:39:00,64.6,54.6,24.99,ESE,118,4.0,-999.0,70,-99.99,,,-99.99,dwt +perl,2013-06-27 06:39:00,
2013-06-26 23:44:00,64.9,54.1,24.99,ESE,111,4.0,-999.0,68,-99.99,,,-99.99,dwt +perl,2013-06-27 06:44:00,
2013-06-26 23:49:00,65.2,54.0,24.99,ESE,110,4.0,-999.0,67,-99.99,,,-99.99,dwt +perl,2013-06-27 06:49:00,
2013-06-26 23:54:00,65.5,53.8,24.99,ESE,111,2.0,-999.0,66,-99.99,,,-99.99,dwt +perl,2013-06-27 06:54:00,
2013-06-26 23:59:00,65.7,52.8,24.99,ESE,112,2.0,-999.0,63,-99.99,,,-99.99,dwt +perl,2013-06-27 06:59:00,